This is the latest recevied weather packets stored in our database for station/object AI9F. If no packets are shown the sender has not sent any weather packets the latest 1 day(s).
| Time | Temp. | Humidity | Pressure | Rain* | Wind** | Luminosity | Snow |
|---|---|---|---|---|---|---|---|
| 1778039112 | 8.33° C | 96% | 1010.8 hPa | 1.78 mm | 0 m/s | 0 W/m² | - |
| 1778038809 | 8.33° C | 96% | 1011 hPa | 1.78 mm | 0.89 m/s, 72° | 0 W/m² | - |
| 1778038506 | 8.33° C | 96% | 1011.3 hPa | 1.27 mm | 0 m/s | 0 W/m² | - |
| 1778038203 | 8.33° C | 96% | 1011.1 hPa | 1.27 mm | 0.45 m/s, 131° | 0 W/m² | - |
| 1778037901 | 8.33° C | 96% | 1011.2 hPa | 1.78 mm | 0.45 m/s, 118° | 0 W/m² | - |
| 1778037596 | 8.33° C | 96% | 1011.4 hPa | 3.05 mm | 0.45 m/s, 183° | 0 W/m² | - |
| 1778037295 | 8.89° C | 97% | 1011.5 hPa | 1.27 mm | 0.89 m/s, 249° | 0 W/m² | - |
| 1778036992 | 8.89° C | 97% | 1011.3 hPa | 4.32 mm | 0.89 m/s, 192° | 0 W/m² | - |
| 1778036690 | 8.89° C | 97% | 1010.9 hPa | 4.83 mm | 0.89 m/s, 229° | 0 W/m² | - |
| 1778036386 | 8.89° C | 97% | 1010.9 hPa | 1.78 mm | 1.34 m/s, 194° | 0 W/m² | - |
| 1778036083 | 8.89° C | 97% | 1011 hPa | 4.32 mm | 0.45 m/s, 85° | 0 W/m² | - |
| 1778035780 | 8.89° C | 97% | 1010.7 hPa | 8.89 mm | 0.89 m/s, 203° | 0 W/m² | - |
| 1778035477 | 8.89° C | 97% | 1009.7 hPa | 6.6 mm | 0.45 m/s, 52° | 0 W/m² | - |
| 1778035172 | 8.89° C | 97% | 1010.6 hPa | 1.78 mm | 0 m/s | 0 W/m² | - |
| 1778034870 | 8.89° C | 97% | 1010.6 hPa | 1.27 mm | 0 m/s | 0 W/m² | - |
| 1778034566 | 8.89° C | 97% | 1010.1 hPa | 3.05 mm | 0.45 m/s, 85° | 0 W/m² | - |
| 1778034264 | 8.89° C | 97% | 1009.8 hPa | 3.05 mm | 0 m/s | 0 W/m² | - |
| 1778033962 | 8.89° C | 97% | 1009.7 hPa | 4.83 mm | 0.89 m/s, 74° | 0 W/m² | - |
| 1778033659 | 8.89° C | 97% | 1009.5 hPa | 4.83 mm | 0 m/s | 0 W/m² | - |
| 1778033355 | 8.89° C | 97% | 1009.4 hPa | 6.1 mm | 0 m/s | 0 W/m² | - |
| 1778033054 | 8.89° C | 97% | 1009.7 hPa | 6.1 mm | 0.45 m/s, 89° | 0 W/m² | - |
| 1778032750 | 8.89° C | 97% | 1010.3 hPa | 6.1 mm | 0.89 m/s, 163° | 0 W/m² | - |
| 1778032448 | 8.89° C | 97% | 1009.6 hPa | 3.05 mm | 0 m/s | 0 W/m² | - |
| 1778032144 | 8.89° C | 97% | 1010.3 hPa | 1.78 mm | 0.45 m/s, 253° | 0 W/m² | - |
| 1778031841 | 8.89° C | 97% | 1010.3 hPa | 1.78 mm | 1.79 m/s, 269° | 0 W/m² | - |
* Rain latest hour (hover to see other rain measurements)
** Current wind speed in m/s (hover to see current wind gust speed)